Time,TemperatureF,DewpointF,PressureIn,WindDirection,WindDirectionDegrees,WindSpeedMPH,WindSpeedGustMPH,Humidity,HourlyPrecipIn,Conditions,Clouds,dailyrainin,SoftwareType,DateUTC
2013-01-15 00:00:00,8.8,5.0,30.31,SSE,153,0.0,4.0,84,0.00,,---,0.00,VWS V14.00,2013-01-15 06:00:00,
2013-01-15 00:01:00,8.8,5.0,30.32,SSE,153,0.0,0.0,84,0.00,,---,0.00,VWS V14.00,2013-01-15 06:01:00,
2013-01-15 00:06:00,9.0,5.4,30.31,SSE,153,0.0,0.0,85,0.00,,---,0.00,VWS V14.00,2013-01-15 06:06:00,
2013-01-15 00:11:00,9.1,5.5,30.32,SSE,165,0.0,4.0,85,0.00,,---,0.00,VWS V14.00,2013-01-15 06:11:00,
2013-01-15 00:16:00,9.3,5.7,30.31,South,173,0.0,4.0,85,0.00,,---,0.00,VWS V14.00,2013-01-15 06:16:00,
2013-01-15 00:21:00,9.3,5.7,30.32,South,178,3.0,4.0,85,0.00,,---,0.00,VWS V14.00,2013-01-15 06:21:00,
2013-01-15 00:26:00,9.3,5.7,30.31,SSW,198,2.0,5.0,85,0.00,,---,0.00,VWS V14.00,2013-01-15 06:26:00,
2013-01-15 00:30:00,9.4,5.8,30.31,SSW,198,2.0,5.0,85,0.00,,---,0.00,VWS V14.00,2013-01-15 06:30:00,
2013-01-15 00:31:00,9.3,5.7,30.31,SSW,198,0.0,2.0,85,0.00,,---,0.00,VWS V14.00,2013-01-15 06:31:00,
2013-01-15 00:36:00,9.2,5.6,30.31,SSW,198,0.0,2.0,85,0.00,,---,0.00,VWS V14.00,2013-01-15 06:36:00,
2013-01-15 00:41:00,9.1,5.5,30.31,SSW,198,0.0,2.0,85,0.00,,---,0.00,VWS V14.00,2013-01-15 06:41:00,
2013-01-15 00:46:00,9.0,5.4,30.31,SSW,198,0.0,2.0,85,0.00,,---,0.00,VWS V14.00,2013-01-15 06:46:00,
2013-01-15 00:51:00,8.7,5.1,30.31,SSW,198,0.0,2.0,85,0.00,,---,0.00,VWS V14.00,2013-01-15 06:51:00,
2013-01-15 00:56:00,8.5,4.9,30.31,SSW,200,2.0,4.0,85,0.00,,---,0.00,VWS V14.00,2013-01-15 06:56:00,
2013-01-15 01:00:00,8.5,5.2,30.31,SSW,200,1.0,4.0,86,0.00,,---,0.00,VWS V14.00,2013-01-15 07:00:00,
2013-01-15 01:01:00,8.6,5.5,30.30,SSW,202,2.0,4.0,87,0.00,,---,0.00,VWS V14.00,2013-01-15 07:01:00,
2013-01-15 01:06:00,8.7,5.6,30.31,SSW,202,2.0,4.0,87,0.00,,---,0.00,VWS V14.00,2013-01-15 07:06:00,
2013-01-15 01:11:00,8.9,5.8,30.31,SW,215,2.0,4.0,87,0.00,,---,0.00,VWS V14.00,2013-01-15 07:11:00,
2013-01-15 01:16:00,9.4,6.6,30.31,SW,221,3.0,5.0,88,0.00,,---,0.00,VWS V14.00,2013-01-15 07:16:00,
2013-01-15 01:21:00,9.7,6.6,30.31,SW,223,2.0,5.0,87,0.00,,---,0.00,VWS V14.00,2013-01-15 07:21:00,
2013-01-15 01:26:00,9.8,6.7,30.31,SW,223,3.0,5.0,87,0.00,,---,0.00,VWS V14.00,2013-01-15 07:26:00,
2013-01-15 01:30:00,9.8,6.7,30.31,SW,223,2.0,5.0,87,0.00,,---,0.00,VWS V14.00,2013-01-15 07:30:00,
2013-01-15 01:31:00,9.9,6.8,30.31,SW,223,2.0,4.0,87,0.00,,---,0.00,VWS V14.00,2013-01-15 07:31:00,
2013-01-15 01:36:00,10.0,6.9,30.31,SW,215,2.0,5.0,87,0.00,,---,0.00,VWS V14.00,2013-01-15 07:36:00,
2013-01-15 01:41:00,9.9,6.8,30.31,SW,216,0.0,5.0,87,0.00,,---,0.00,VWS V14.00,2013-01-15 07:41:00,
2013-01-15 01:46:00,9.9,6.8,30.31,SW,216,0.0,5.0,87,0.00,,---,0.00,VWS V14.00,2013-01-15 07:46:00,
2013-01-15 01:51:00,9.8,6.7,30.31,SW,216,0.0,5.0,87,0.00,,---,0.00,VWS V14.00,2013-01-15 07:51:00,
2013-01-15 01:56:00,9.8,6.7,30.31,SW,216,2.0,5.0,87,0.00,,---,0.00,VWS V14.00,2013-01-15 07:56:00,
2013-01-15 02:00:00,9.8,6.7,30.31,SW,216,2.0,5.0,87,0.00,,---,0.00,VWS V14.00,2013-01-15 08:00:00,
2013-01-15 02:01:00,9.9,6.8,30.31,SW,217,3.0,4.0,87,0.00,,---,0.00,VWS V14.00,2013-01-15 08:01:00,
2013-01-15 02:06:00,10.0,7.2,30.31,SW,217,0.0,4.0,88,0.00,,---,0.00,VWS V14.00,2013-01-15 08:06:00,
2013-01-15 02:11:00,9.9,6.8,30.31,SW,217,0.0,4.0,87,0.00,,---,0.00,VWS V14.00,2013-01-15 08:11:00,
2013-01-15 02:16:00,9.8,6.7,30.31,SW,217,0.0,4.0,87,0.00,,---,0.00,VWS V14.00,2013-01-15 08:16:00,
2013-01-15 02:21:00,9.7,6.6,30.31,SW,217,0.0,4.0,87,0.00,,---,0.00,VWS V14.00,2013-01-15 08:21:00,
2013-01-15 02:26:00,9.6,6.5,30.31,SW,217,0.0,4.0,87,0.00,,---,0.00,VWS V14.00,2013-01-15 08:26:00,
2013-01-15 02:30:00,9.6,6.8,30.31,SW,217,0.0,4.0,88,0.00,,---,0.00,VWS V14.00,2013-01-15 08:30:00,
2013-01-15 02:31:00,9.7,6.9,30.31,SW,217,0.0,0.0,88,0.00,,---,0.00,VWS V14.00,2013-01-15 08:31:00,
2013-01-15 02:36:00,9.5,6.4,30.32,SW,217,0.0,0.0,87,0.00,,---,0.00,VWS V14.00,2013-01-15 08:36:00,
2013-01-15 02:41:00,9.4,6.6,30.31,SW,217,0.0,0.0,88,0.00,,---,0.00,VWS V14.00,2013-01-15 08:41:00,
2013-01-15 02:46:00,9.2,6.1,30.31,SW,217,0.0,0.0,87,0.00,,---,0.00,VWS V14.00,2013-01-15 08:46:00,
2013-01-15 02:51:00,9.0,5.9,30.31,SW,217,0.0,0.0,87,0.00,,---,0.00,VWS V14.00,2013-01-15 08:51:00,
2013-01-15 02:56:00,8.7,5.6,30.31,SW,217,0.0,0.0,87,0.00,,---,0.00,VWS V14.00,2013-01-15 08:56:00,
2013-01-15 03:00:00,8.7,5.6,30.31,SW,217,0.0,0.0,87,0.00,,---,0.00,VWS V14.00,2013-01-15 09:00:00,
2013-01-15 03:01:00,8.5,5.4,30.31,SW,217,0.0,0.0,87,0.00,,---,0.00,VWS V14.00,2013-01-15 09:01:00,
2013-01-15 03:06:00,8.3,5.5,30.31,SW,217,0.0,0.0,88,0.00,,---,0.00,VWS V14.00,2013-01-15 09:06:00,
2013-01-15 03:11:00,8.5,5.7,30.31,SW,217,0.0,0.0,88,0.00,,---,0.00,VWS V14.00,2013-01-15 09:11:00,
2013-01-15 03:16:00,8.6,5.8,30.31,SW,217,1.0,4.0,88,0.00,,---,0.00,VWS V14.00,2013-01-15 09:16:00,
2013-01-15 03:21:00,8.7,5.9,30.31,SW,217,2.0,4.0,88,0.00,,---,0.00,VWS V14.00,2013-01-15 09:21:00,
2013-01-15 03:26:00,8.6,5.8,30.31,SW,217,0.0,4.0,88,0.00,,---,0.00,VWS V14.00,2013-01-15 09:26:00,
2013-01-15 03:30:00,8.5,5.4,30.31,SW,217,0.0,4.0,87,0.00,,---,0.00,VWS V14.00,2013-01-15 09:30:00,
2013-01-15 03:31:00,8.2,5.1,30.31,SW,217,0.0,0.0,87,0.00,,---,0.00,VWS V14.00,2013-01-15 09:31:00,
2013-01-15 03:36:00,8.2,5.4,30.30,SW,217,0.0,0.0,88,0.00,,---,0.00,VWS V14.00,2013-01-15 09:36:00,
2013-01-15 03:41:00,8.2,5.4,30.30,SW,217,2.0,3.0,88,0.00,,---,0.00,VWS V14.00,2013-01-15 09:41:00,
2013-01-15 03:46:00,8.0,4.9,30.30,SW,217,0.0,3.0,87,0.00,,---,0.00,VWS V14.00,2013-01-15 09:46:00,
2013-01-15 03:51:00,7.8,5.0,30.30,SW,217,0.0,3.0,88,0.00,,---,0.00,VWS V14.00,2013-01-15 09:51:00,
2013-01-15 03:56:00,7.7,4.9,30.30,SW,217,0.0,3.0,88,0.00,,---,0.00,VWS V14.00,2013-01-15 09:56:00,
2013-01-15 04:00:00,7.6,4.6,30.30,SW,217,0.0,3.0,87,0.00,,---,0.00,VWS V14.00,2013-01-15 10:00:00,
2013-01-15 04:01:00,7.5,4.4,30.30,SW,217,0.0,0.0,87,0.00,,---,0.00,VWS V14.00,2013-01-15 10:01:00,
2013-01-15 04:06:00,7.3,4.2,30.30,SW,217,0.0,0.0,87,0.00,,---,0.00,VWS V14.00,2013-01-15 10:06:00,
2013-01-15 04:11:00,7.1,4.1,30.30,SW,217,0.0,0.0,87,0.00,,---,0.00,VWS V14.00,2013-01-15 10:11:00,
2013-01-15 04:16:00,6.8,3.8,30.29,SW,217,0.0,0.0,87,0.00,,---,0.00,VWS V14.00,2013-01-15 10:16:00,
2013-01-15 04:21:00,6.6,3.6,30.30,SW,217,0.0,0.0,87,0.00,,---,0.00,VWS V14.00,2013-01-15 10:21:00,
2013-01-15 04:26:00,6.4,3.4,30.29,SW,217,0.0,0.0,87,0.00,,---,0.00,VWS V14.00,2013-01-15 10:26:00,
2013-01-15 04:30:00,6.4,3.6,30.29,SW,217,0.0,0.0,88,0.00,,---,0.00,VWS V14.00,2013-01-15 10:30:00,
2013-01-15 04:31:00,6.3,3.3,30.29,SW,217,0.0,0.0,87,0.00,,---,0.00,VWS V14.00,2013-01-15 10:31:00,
2013-01-15 04:36:00,5.9,2.9,30.29,SW,217,0.0,0.0,87,0.00,,---,0.00,VWS V14.00,2013-01-15 10:36:00,
2013-01-15 04:41:00,5.5,2.5,30.29,SW,217,0.0,0.0,87,0.00,,---,0.00,VWS V14.00,2013-01-15 10:41:00,
2013-01-15 04:46:00,5.1,1.8,30.29,SW,217,0.0,0.0,86,0.00,,---,0.00,VWS V14.00,2013-01-15 10:46:00,
2013-01-15 04:51:00,4.7,1.4,30.28,SW,217,0.0,0.0,86,0.00,,---,0.00,VWS V14.00,2013-01-15 10:51:00,
2013-01-15 04:56:00,4.3,1.0,30.28,SW,217,0.0,0.0,86,0.00,,---,0.00,VWS V14.00,2013-01-15 10:56:00,
2013-01-15 05:00:00,4.2,0.9,30.28,SW,217,0.0,0.0,86,0.00,,---,0.00,VWS V14.00,2013-01-15 11:00:00,
2013-01-15 05:01:00,3.8,0.6,30.29,SW,217,0.0,0.0,86,0.00,,---,0.00,VWS V14.00,2013-01-15 11:01:00,
2013-01-15 05:06:00,3.6,0.6,30.28,SW,217,0.0,0.0,87,0.00,,---,0.00,VWS V14.00,2013-01-15 11:06:00,
2013-01-15 05:11:00,3.6,0.6,30.29,SW,217,0.0,0.0,87,0.00,,---,0.00,VWS V14.00,2013-01-15 11:11:00,
2013-01-15 05:16:00,3.5,0.5,30.28,SW,217,0.0,0.0,87,0.00,,---,0.00,VWS V14.00,2013-01-15 11:16:00,
2013-01-15 05:21:00,3.3,0.3,30.28,SW,217,0.0,0.0,87,0.00,,---,0.00,VWS V14.00,2013-01-15 11:21:00,
2013-01-15 05:26:00,3.1,0.1,30.28,SW,217,0.0,0.0,87,0.00,,---,0.00,VWS V14.00,2013-01-15 11:26:00,
2013-01-15 05:30:00,3.1,0.1,30.28,SW,217,0.0,0.0,87,0.00,,---,0.00,VWS V14.00,2013-01-15 11:30:00,
2013-01-15 05:31:00,2.7,-0.5,30.28,SW,217,0.0,0.0,86,0.00,,---,0.00,VWS V14.00,2013-01-15 11:31:00,
2013-01-15 05:36:00,2.2,-1.0,30.28,SW,217,0.0,0.0,86,0.00,,---,0.00,VWS V14.00,2013-01-15 11:36:00,
2013-01-15 05:41:00,1.9,-1.3,30.28,SW,217,0.0,0.0,86,0.00,,---,0.00,VWS V14.00,2013-01-15 11:41:00,
2013-01-15 05:46:00,1.6,-1.6,30.27,SW,217,0.0,0.0,86,0.00,,---,0.00,VWS V14.00,2013-01-15 11:46:00,
2013-01-15 05:51:00,1.5,-1.5,30.27,SW,217,0.0,0.0,87,0.00,,---,0.00,VWS V14.00,2013-01-15 11:51:00,
2013-01-15 05:56:00,1.2,-2.0,30.27,SW,217,0.0,0.0,86,0.00,,---,0.00,VWS V14.00,2013-01-15 11:56:00,
2013-01-15 06:00:00,1.1,-2.1,30.27,SW,217,0.0,0.0,86,0.00,,---,0.00,VWS V14.00,2013-01-15 12:00:00,
2013-01-15 06:01:00,0.9,-2.3,30.27,SW,217,0.0,0.0,86,0.00,,---,0.00,VWS V14.00,2013-01-15 12:01:00,
2013-01-15 06:06:00,0.7,-2.5,30.27,SW,217,0.0,0.0,86,0.00,,---,0.00,VWS V14.00,2013-01-15 12:06:00,
2013-01-15 06:11:00,0.9,-2.0,30.27,SW,217,0.0,0.0,87,0.00,,---,0.00,VWS V14.00,2013-01-15 12:11:00,
2013-01-15 06:16:00,1.3,-1.4,30.27,SW,217,0.0,0.0,88,0.00,,---,0.00,VWS V14.00,2013-01-15 12:16:00,
2013-01-15 06:21:00,1.4,-1.3,30.27,SW,217,0.0,0.0,88,0.00,,---,0.00,VWS V14.00,2013-01-15 12:21:00,
2013-01-15 06:26:00,1.5,-1.5,30.26,SW,217,0.0,0.0,87,0.00,,---,0.00,VWS V14.00,2013-01-15 12:26:00,
2013-01-15 06:30:00,1.5,-1.5,30.26,SW,217,0.0,0.0,87,0.00,,---,0.00,VWS V14.00,2013-01-15 12:30:00,
2013-01-15 06:31:00,1.4,-1.6,30.27,SW,217,0.0,0.0,87,0.00,,---,0.00,VWS V14.00,2013-01-15 12:31:00,
2013-01-15 06:36:00,1.5,-1.5,30.26,SW,217,0.0,0.0,87,0.00,,---,0.00,VWS V14.00,2013-01-15 12:36:00,
2013-01-15 06:41:00,1.6,-1.1,30.27,SW,217,0.0,0.0,88,0.00,,---,0.00,VWS V14.00,2013-01-15 12:41:00,
2013-01-15 06:46:00,1.5,-1.5,30.27,SW,217,0.0,0.0,87,0.00,,---,0.00,VWS V14.00,2013-01-15 12:46:00,
2013-01-15 06:51:00,1.0,-2.2,30.27,SW,217,0.0,0.0,86,0.00,,---,0.00,VWS V14.00,2013-01-15 12:51:00,
2013-01-15 06:56:00,0.8,-2.4,30.26,SW,217,0.0,0.0,86,0.00,,---,0.00,VWS V14.00,2013-01-15 12:56:00,
2013-01-15 07:00:00,0.8,-2.4,30.26,SW,217,0.0,0.0,86,0.00,,---,0.00,VWS V14.00,2013-01-15 13:00:00,
2013-01-15 07:01:00,0.9,-2.0,30.26,SW,217,0.0,0.0,87,0.00,,---,0.00,VWS V14.00,2013-01-15 13:01:00,
2013-01-15 07:06:00,1.3,-1.4,30.26,SW,217,0.0,0.0,88,0.00,,---,0.00,VWS V14.00,2013-01-15 13:06:00,
2013-01-15 07:11:00,2.8,0.8,30.27,SSW,205,1.0,4.0,91,0.00,,---,0.00,VWS V14.00,2013-01-15 13:11:00,
2013-01-15 07:16:00,4.6,2.8,30.27,SSW,198,1.0,4.0,92,0.00,,---,0.00,VWS V14.00,2013-01-15 13:16:00,
2013-01-15 07:21:00,5.8,4.0,30.27,SSW,192,4.0,7.0,92,0.00,,---,0.00,VWS V14.00,2013-01-15 13:21:00,
2013-01-15 07:26:00,6.8,4.7,30.27,SSW,200,1.0,7.0,91,0.00,,---,0.00,VWS V14.00,2013-01-15 13:26:00,
2013-01-15 07:30:00,7.1,5.0,30.27,SSW,200,3.0,7.0,91,0.00,,---,0.00,VWS V14.00,2013-01-15 13:30:00,
2013-01-15 07:31:00,7.5,5.4,30.27,South,188,2.0,4.0,91,0.00,,---,0.00,VWS V14.00,2013-01-15 13:31:00,
2013-01-15 07:36:00,7.7,5.4,30.27,South,188,0.0,4.0,90,0.00,,---,0.00,VWS V14.00,2013-01-15 13:36:00,
2013-01-15 07:41:00,7.6,5.3,30.27,South,188,0.0,4.0,90,0.00,,---,0.00,VWS V14.00,2013-01-15 13:41:00,
2013-01-15 07:46:00,7.7,5.4,30.28,South,188,0.0,4.0,90,0.00,,---,0.00,VWS V14.00,2013-01-15 13:46:00,
2013-01-15 07:51:00,7.9,5.6,30.28,South,190,2.0,4.0,90,0.00,,---,0.00,VWS V14.00,2013-01-15 13:51:00,
2013-01-15 07:56:00,8.2,5.9,30.28,SSW,196,3.0,5.0,90,0.00,,---,0.00,VWS V14.00,2013-01-15 13:56:00,
2013-01-15 08:00:00,8.2,5.9,30.28,SSW,196,2.0,6.0,90,0.00,,---,0.00,VWS V14.00,2013-01-15 14:00:00,
2013-01-15 08:01:00,8.4,6.1,30.28,SSW,192,2.0,5.0,90,0.00,,---,0.00,VWS V14.00,2013-01-15 14:01:00,
2013-01-15 08:06:00,8.6,6.3,30.28,SSW,205,3.0,5.0,90,0.00,,---,0.00,VWS V14.00,2013-01-15 14:06:00,
2013-01-15 08:11:00,8.8,6.5,30.27,South,190,2.0,6.0,90,0.00,,---,0.00,VWS V14.00,2013-01-15 14:11:00,
2013-01-15 08:16:00,9.0,6.7,30.27,SSW,193,2.0,6.0,90,0.00,,---,0.00,VWS V14.00,2013-01-15 14:16:00,
2013-01-15 08:21:00,9.2,6.9,30.27,SSW,196,1.0,6.0,90,0.00,,---,0.00,VWS V14.00,2013-01-15 14:21:00,
2013-01-15 08:26:00,9.5,7.2,30.28,SSW,193,3.0,6.0,90,0.00,,---,0.00,VWS V14.00,2013-01-15 14:26:00,
2013-01-15 08:30:00,9.6,7.3,30.27,SSW,194,1.0,6.0,90,0.00,,---,0.00,VWS V14.00,2013-01-15 14:30:00,
2013-01-15 08:31:00,9.8,7.5,30.27,SSW,194,0.0,2.0,90,0.00,,---,0.00,VWS V14.00,2013-01-15 14:31:00,
2013-01-15 08:36:00,10.2,7.9,30.27,SSW,192,0.0,2.0,90,0.00,,---,0.00,VWS V14.00,2013-01-15 14:36:00,
2013-01-15 08:41:00,10.5,8.1,30.27,South,188,3.0,4.0,90,0.00,,---,0.00,VWS V14.00,2013-01-15 14:41:00,
2013-01-15 08:46:00,10.8,8.4,30.27,South,178,0.0,4.0,90,0.00,,---,0.00,VWS V14.00,2013-01-15 14:46:00,
2013-01-15 08:51:00,11.1,8.8,30.27,South,177,0.0,4.0,90,0.00,,---,0.00,VWS V14.00,2013-01-15 14:51:00,
2013-01-15 08:56:00,11.3,8.7,30.27,South,184,0.0,4.0,89,0.00,,---,0.00,VWS V14.00,2013-01-15 14:56:00,
2013-01-15 09:00:00,11.4,8.8,30.26,South,174,4.0,4.0,89,0.00,,---,0.00,VWS V14.00,2013-01-15 15:00:00,
2013-01-15 09:01:00,11.6,9.0,30.26,South,184,3.0,7.0,89,0.00,,---,0.00,VWS V14.00,2013-01-15 15:01:00,
2013-01-15 09:06:00,11.9,9.0,30.26,South,176,1.0,7.0,88,0.00,,---,0.00,VWS V14.00,2013-01-15 15:06:00,
2013-01-15 09:11:00,12.2,9.3,30.26,South,173,4.0,7.0,88,0.00,,---,0.00,VWS V14.00,2013-01-15 15:11:00,
2013-01-15 09:16:00,12.4,9.5,30.26,South,182,4.0,9.0,88,0.00,,---,0.00,VWS V14.00,2013-01-15 15:16:00,
2013-01-15 09:21:00,12.6,9.5,30.26,SSW,204,4.0,9.0,87,0.00,,---,0.00,VWS V14.00,2013-01-15 15:21:00,
2013-01-15 09:26:00,12.7,9.6,30.25,South,171,7.0,9.0,87,0.00,,---,0.00,VWS V14.00,2013-01-15 15:26:00,
2013-01-15 09:30:00,12.8,9.7,30.25,SSE,167,5.0,9.0,87,0.00,,---,0.00,VWS V14.00,2013-01-15 15:30:00,
2013-01-15 09:31:00,12.8,9.4,30.25,SSW,192,1.0,7.0,86,0.00,,---,0.00,VWS V14.00,2013-01-15 15:31:00,
2013-01-15 09:36:00,12.9,9.5,30.26,SSW,204,4.0,7.0,86,0.00,,---,0.00,VWS V14.00,2013-01-15 15:36:00,
2013-01-15 09:41:00,12.9,9.2,30.26,South,173,3.0,7.0,85,0.00,,---,0.00,VWS V14.00,2013-01-15 15:41:00,
2013-01-15 09:46:00,13.0,9.4,30.25,SSE,168,2.0,9.0,85,0.00,,---,0.00,VWS V14.00,2013-01-15 15:46:00,
2013-01-15 09:51:00,13.2,9.6,30.25,South,177,3.0,9.0,85,0.00,,---,0.00,VWS V14.00,2013-01-15 15:51:00,
2013-01-15 09:56:00,13.4,9.7,30.25,SSW,206,2.0,9.0,85,0.00,,---,0.00,VWS V14.00,2013-01-15 15:56:00,
2013-01-15 10:00:00,13.5,9.8,30.25,SSW,207,3.0,9.0,85,0.00,,---,0.00,VWS V14.00,2013-01-15 16:00:00,
2013-01-15 10:01:00,13.7,10.0,30.25,SSW,207,0.0,3.0,85,0.00,,---,0.00,VWS V14.00,2013-01-15 16:01:00,
2013-01-15 10:06:00,13.9,10.0,30.25,SW,217,3.0,8.0,84,0.00,,---,0.00,VWS V14.00,2013-01-15 16:06:00,
2013-01-15 10:11:00,14.2,10.3,30.25,WSW,238,6.0,9.0,84,0.00,,---,0.00,VWS V14.00,2013-01-15 16:11:00,
2013-01-15 10:16:00,14.3,10.1,30.24,SW,234,4.0,10.0,83,0.00,,---,0.00,VWS V14.00,2013-01-15 16:16:00,
2013-01-15 10:21:00,14.5,10.3,30.24,SSW,202,4.0,10.0,83,0.00,,---,0.00,VWS V14.00,2013-01-15 16:21:00,
2013-01-15 10:26:00,14.9,10.7,30.24,SSW,208,4.0,10.0,83,0.00,,---,0.00,VWS V14.00,2013-01-15 16:26:00,
2013-01-15 10:30:00,14.9,10.7,30.24,SSW,210,7.0,10.0,83,0.00,,---,0.00,VWS V14.00,2013-01-15 16:30:00,
2013-01-15 10:31:00,15.2,10.7,30.24,SSW,209,2.0,10.0,82,0.00,,---,0.00,VWS V14.00,2013-01-15 16:31:00,
2013-01-15 10:36:00,15.6,11.1,30.24,South,188,5.0,10.0,82,0.00,,---,0.00,VWS V14.00,2013-01-15 16:36:00,
2013-01-15 10:41:00,15.9,11.1,30.24,SSW,192,7.0,10.0,81,0.00,,---,0.00,VWS V14.00,2013-01-15 16:41:00,
2013-01-15 10:46:00,16.2,11.4,30.24,SSW,192,3.0,10.0,81,0.00,,---,0.00,VWS V14.00,2013-01-15 16:46:00,
2013-01-15 10:51:00,16.6,11.8,30.24,South,175,4.0,10.0,81,0.00,,---,0.00,VWS V14.00,2013-01-15 16:51:00,
2013-01-15 10:56:00,17.1,12.0,30.23,SW,217,5.0,10.0,80,0.00,,---,0.00,VWS V14.00,2013-01-15 16:56:00,
2013-01-15 11:00:00,17.2,12.1,30.23,SSW,207,6.0,10.0,80,0.00,,---,0.00,VWS V14.00,2013-01-15 17:00:00,
2013-01-15 11:01:00,17.4,12.3,30.23,SSW,206,5.0,6.0,80,0.00,,---,0.00,VWS V14.00,2013-01-15 17:01:00,
2013-01-15 11:06:00,17.6,12.2,30.23,SSW,198,7.0,12.0,79,0.00,,---,0.00,VWS V14.00,2013-01-15 17:06:00,
2013-01-15 11:11:00,17.7,12.0,30.23,SW,234,7.0,14.0,78,0.00,,---,0.00,VWS V14.00,2013-01-15 17:11:00,
2013-01-15 11:16:00,17.8,12.1,30.23,SW,227,8.0,14.0,78,0.00,,---,0.00,VWS V14.00,2013-01-15 17:16:00,
2013-01-15 11:21:00,18.1,12.4,30.23,SSW,194,5.0,14.0,78,0.00,,---,0.00,VWS V14.00,2013-01-15 17:21:00,
2013-01-15 11:25:00,18.2,12.5,30.22,SSW,202,9.0,14.0,78,0.00,,---,0.00,VWS V14.00,2013-01-15 17:25:00,
2013-01-15 11:30:00,18.3,12.6,30.22,SW,221,11.0,14.0,78,0.00,,---,0.00,VWS V14.00,2013-01-15 17:30:00,
2013-01-15 11:31:00,18.4,12.4,30.22,South,184,10.0,12.0,77,0.00,,---,0.00,VWS V14.00,2013-01-15 17:31:00,
2013-01-15 11:36:00,18.3,12.3,30.21,SW,223,5.0,14.0,77,0.00,,---,0.00,VWS V14.00,2013-01-15 17:36:00,
2013-01-15 11:40:00,18.5,12.8,30.21,SW,227,8.0,14.0,78,0.00,,---,0.00,VWS V14.00,2013-01-15 17:40:00,
2013-01-15 11:45:00,18.7,12.7,30.20,SW,224,6.0,14.0,77,0.00,,---,0.00,VWS V14.00,2013-01-15 17:45:00,
2013-01-15 11:50:00,18.9,12.9,30.20,South,191,11.0,14.0,77,0.00,,---,0.00,VWS V14.00,2013-01-15 17:50:00,
2013-01-15 11:55:00,19.2,13.2,30.20,SW,217,4.0,14.0,77,0.00,,---,0.00,VWS V14.00,2013-01-15 17:55:00,
2013-01-15 12:00:00,19.4,13.4,30.19,SSW,211,8.0,13.0,77,0.00,,---,0.00,VWS V14.00,2013-01-15 18:00:00,
2013-01-15 12:05:00,19.5,13.5,30.19,SW,225,6.0,13.0,77,0.00,,---,0.00,VWS V14.00,2013-01-15 18:05:00,
2013-01-15 12:10:00,19.8,13.5,30.19,WSW,240,11.0,14.0,76,0.00,,---,0.00,VWS V14.00,2013-01-15 18:10:00,
2013-01-15 12:15:00,19.9,13.6,30.18,SSW,211,4.0,14.0,76,0.00,,---,0.00,VWS V14.00,2013-01-15 18:15:00,
2013-01-15 12:20:00,20.3,14.0,30.17,SSW,211,9.0,14.0,76,0.00,,---,0.00,VWS V14.00,2013-01-15 18:20:00,
2013-01-15 12:25:00,20.5,13.9,30.17,SSW,206,6.0,14.0,75,0.00,,---,0.00,VWS V14.00,2013-01-15 18:25:00,
2013-01-15 12:30:00,20.7,14.0,30.17,SSW,205,3.0,12.0,75,0.00,,---,0.00,VWS V14.00,2013-01-15 18:30:00,
2013-01-15 12:35:00,21.1,14.4,30.17,SW,222,5.0,13.0,75,0.00,,---,0.00,VWS V14.00,2013-01-15 18:35:00,
2013-01-15 12:40:00,21.1,14.1,30.16,WSW,240,6.0,13.0,74,0.00,,---,0.00,VWS V14.00,2013-01-15 18:40:00,
2013-01-15 12:45:00,21.4,14.4,30.15,South,186,7.0,13.0,74,0.00,,---,0.00,VWS V14.00,2013-01-15 18:45:00,
2013-01-15 12:50:00,21.7,14.7,30.15,South,188,8.0,13.0,74,0.00,,---,0.00,VWS V14.00,2013-01-15 18:50:00,
2013-01-15 12:55:00,21.8,14.8,30.15,SSE,163,6.0,13.0,74,0.00,,---,0.00,VWS V14.00,2013-01-15 18:55:00,
2013-01-15 13:00:00,22.2,14.9,30.15,SSW,213,7.0,12.0,73,0.00,,---,0.00,VWS V14.00,2013-01-15 19:00:00,
2013-01-15 13:05:00,22.4,15.1,30.14,SSW,200,4.0,12.0,73,0.00,,---,0.00,VWS V14.00,2013-01-15 19:05:00,
2013-01-15 13:10:00,22.6,14.9,30.14,SSW,207,3.0,14.0,72,0.00,,---,0.00,VWS V14.00,2013-01-15 19:10:00,
2013-01-15 13:15:00,22.9,15.2,30.14,SW,219,7.0,16.0,72,0.00,,---,0.00,VWS V14.00,2013-01-15 19:15:00,
2013-01-15 13:20:00,23.2,15.5,30.14,SW,220,9.0,16.0,72,0.00,,---,0.00,VWS V14.00,2013-01-15 19:20:00,
2013-01-15 13:25:00,23.5,15.8,30.14,SW,222,5.0,16.0,72,0.00,,---,0.00,VWS V14.00,2013-01-15 19:25:00,
2013-01-15 13:30:00,23.8,16.1,30.14,SSW,202,5.0,11.0,72,0.00,,---,0.00,VWS V14.00,2013-01-15 19:30:00,
2013-01-15 13:35:00,23.9,15.9,30.14,SW,232,7.0,13.0,71,0.00,,---,0.00,VWS V14.00,2013-01-15 19:35:00,
2013-01-15 13:40:00,24.2,16.2,30.14,SW,232,4.0,13.0,71,0.00,,---,0.00,VWS V14.00,2013-01-15 19:40:00,
2013-01-15 13:45:00,24.5,16.1,30.14,SW,236,4.0,13.0,70,0.00,,---,0.00,VWS V14.00,2013-01-15 19:45:00,
2013-01-15 13:50:00,24.8,16.4,30.13,SSW,198,6.0,13.0,70,0.00,,---,0.00,VWS V14.00,2013-01-15 19:50:00,
2013-01-15 13:55:00,24.9,16.5,30.13,SSW,212,6.0,13.0,70,0.00,,---,0.00,VWS V14.00,2013-01-15 19:55:00,
2013-01-15 14:00:00,25.3,16.9,30.13,SSW,198,5.0,7.0,70,0.00,,---,0.00,VWS V14.00,2013-01-15 20:00:00,
2013-01-15 14:05:00,25.4,16.7,30.13,SW,215,3.0,10.0,69,0.00,,---,0.00,VWS V14.00,2013-01-15 20:05:00,
2013-01-15 14:10:00,25.4,17.0,30.12,SSW,205,7.0,11.0,70,0.00,,---,0.00,VWS V14.00,2013-01-15 20:10:00,
2013-01-15 14:15:00,25.7,17.3,30.12,South,190,3.0,11.0,70,0.00,,---,0.00,VWS V14.00,2013-01-15 20:15:00,
2013-01-15 14:20:00,25.9,17.1,30.12,SSW,193,6.0,11.0,69,0.00,,---,0.00,VWS V14.00,2013-01-15 20:20:00,
2013-01-15 14:25:00,26.0,17.6,30.11,SSW,192,11.0,11.0,70,0.00,,---,0.00,VWS V14.00,2013-01-15 20:25:00,
2013-01-15 14:30:00,26.2,17.8,30.11,SSW,192,5.0,9.0,70,0.00,,---,0.00,VWS V14.00,2013-01-15 20:30:00,
2013-01-15 14:35:00,26.4,17.6,30.11,SSW,213,2.0,10.0,69,0.00,,---,0.00,VWS V14.00,2013-01-15 20:35:00,
2013-01-15 14:40:00,26.6,17.8,30.11,South,188,9.0,10.0,69,0.00,,---,0.00,VWS V14.00,2013-01-15 20:40:00,
2013-01-15 14:45:00,26.8,18.0,30.11,SSW,197,4.0,10.0,69,0.00,,---,0.00,VWS V14.00,2013-01-15 20:45:00,
2013-01-15 14:50:00,27.0,18.2,30.11,SSW,200,7.0,10.0,69,0.00,,---,0.00,VWS V14.00,2013-01-15 20:50:00,
2013-01-15 14:55:00,27.1,18.3,30.11,SSW,208,9.0,12.0,69,0.00,,---,0.00,VWS V14.00,2013-01-15 20:55:00,
2013-01-15 15:00:00,27.2,18.7,30.11,SW,216,11.0,11.0,70,0.00,,---,0.00,VWS V14.00,2013-01-15 21:00:00,
2013-01-15 15:05:00,27.3,19.1,30.10,SSW,194,4.0,12.0,71,0.00,,---,0.00,VWS V14.00,2013-01-15 21:05:00,
2013-01-15 15:10:00,27.3,19.1,30.10,SW,229,6.0,14.0,71,0.00,,---,0.00,VWS V14.00,2013-01-15 21:10:00,
2013-01-15 15:15:00,27.4,19.6,30.10,SSW,211,4.0,14.0,72,0.00,,---,0.00,VWS V14.00,2013-01-15 21:15:00,
2013-01-15 15:20:00,27.5,19.7,30.11,SSW,205,5.0,14.0,72,0.00,,---,0.00,VWS V14.00,2013-01-15 21:20:00,
2013-01-15 15:25:00,27.5,20.0,30.10,SW,229,5.0,14.0,73,0.00,,---,0.00,VWS V14.00,2013-01-15 21:25:00,
2013-01-15 15:30:00,27.5,20.0,30.10,SSW,209,5.0,12.0,73,0.00,,---,0.00,VWS V14.00,2013-01-15 21:30:00,
2013-01-15 15:35:00,27.6,20.1,30.10,South,179,7.0,12.0,73,0.00,,---,0.00,VWS V14.00,2013-01-15 21:35:00,
2013-01-15 15:40:00,27.5,20.0,30.09,SSW,207,3.0,12.0,73,0.00,,---,0.00,VWS V14.00,2013-01-15 21:40:00,
2013-01-15 15:45:00,27.5,20.3,30.09,SSW,211,3.0,12.0,74,0.00,,---,0.00,VWS V14.00,2013-01-15 21:45:00,
2013-01-15 15:50:00,27.6,20.4,30.09,SSW,204,9.0,12.0,74,0.00,,---,0.00,VWS V14.00,2013-01-15 21:50:00,
2013-01-15 15:55:00,27.6,20.4,30.09,SSW,211,5.0,13.0,74,0.00,,---,0.00,VWS V14.00,2013-01-15 21:55:00,
2013-01-15 16:00:00,27.6,20.4,30.09,SW,215,5.0,11.0,74,0.00,,---,0.00,VWS V14.00,2013-01-15 22:00:00,
2013-01-15 16:05:00,27.6,20.4,30.09,SSW,203,4.0,13.0,74,0.00,,---,0.00,VWS V14.00,2013-01-15 22:05:00,
2013-01-15 16:10:00,27.5,20.3,30.10,SW,223,6.0,13.0,74,0.00,,---,0.00,VWS V14.00,2013-01-15 22:10:00,
2013-01-15 16:15:00,27.5,20.3,30.09,SSW,212,9.0,13.0,74,0.00,,---,0.00,VWS V14.00,2013-01-15 22:15:00,
2013-01-15 16:20:00,27.4,20.5,30.09,SSW,205,3.0,13.0,75,0.00,,---,0.00,VWS V14.00,2013-01-15 22:20:00,
2013-01-15 16:25:00,27.3,20.4,30.09,SSW,198,5.0,13.0,75,0.00,,---,0.00,VWS V14.00,2013-01-15 22:25:00,
2013-01-15 16:30:00,27.2,20.3,30.09,SSW,197,6.0,11.0,75,0.00,,---,0.00,VWS V14.00,2013-01-15 22:30:00,
2013-01-15 16:35:00,27.0,20.1,30.09,SW,219,7.0,11.0,75,0.00,,---,0.00,VWS V14.00,2013-01-15 22:35:00,
2013-01-15 16:40:00,26.9,20.4,30.09,SSW,199,8.0,13.0,76,0.00,,---,0.00,VWS V14.00,2013-01-15 22:40:00,
2013-01-15 16:45:00,26.7,19.9,30.08,SW,219,5.0,13.0,75,0.00,,---,0.00,VWS V14.00,2013-01-15 22:45:00,
2013-01-15 16:50:00,26.5,19.7,30.09,SW,225,7.0,13.0,75,0.00,,---,0.00,VWS V14.00,2013-01-15 22:50:00,
2013-01-15 16:55:00,26.2,19.4,30.09,SW,221,5.0,13.0,75,0.00,,---,0.00,VWS V14.00,2013-01-15 22:55:00,
2013-01-15 17:00:00,25.9,19.4,30.09,SW,217,7.0,9.0,76,0.00,,---,0.00,VWS V14.00,2013-01-15 23:00:00,
2013-01-15 17:05:00,25.7,18.9,30.09,SSW,198,7.0,11.0,75,0.00,,---,0.00,VWS V14.00,2013-01-15 23:05:00,
2013-01-15 17:10:00,25.6,18.8,30.08,SW,222,5.0,11.0,75,0.00,,---,0.00,VWS V14.00,2013-01-15 23:10:00,
2013-01-15 17:15:00,25.5,18.4,30.08,SW,222,6.0,12.0,74,0.00,,---,0.00,VWS V14.00,2013-01-15 23:15:00,
2013-01-15 17:20:00,25.3,17.9,30.07,SW,217,5.0,12.0,73,0.00,,---,0.00,VWS V14.00,2013-01-15 23:20:00,
2013-01-15 17:25:00,25.1,17.4,30.07,SW,224,6.0,12.0,72,0.00,,---,0.00,VWS V14.00,2013-01-15 23:25:00,
2013-01-15 17:30:00,25.0,17.3,30.07,SW,232,5.0,9.0,72,0.00,,---,0.00,VWS V14.00,2013-01-15 23:30:00,
2013-01-15 17:35:00,24.7,17.0,30.07,SW,214,3.0,9.0,72,0.00,,---,0.00,VWS V14.00,2013-01-15 23:35:00,
2013-01-15 17:40:00,24.5,16.5,30.07,SW,215,5.0,9.0,71,0.00,,---,0.00,VWS V14.00,2013-01-15 23:40:00,
2013-01-15 17:45:00,24.2,16.5,30.06,SW,216,2.0,9.0,72,0.00,,---,0.00,VWS V14.00,2013-01-15 23:45:00,
2013-01-15 17:50:00,23.9,16.2,30.06,SSW,200,4.0,9.0,72,0.00,,---,0.00,VWS V14.00,2013-01-15 23:50:00,
2013-01-15 17:55:00,23.6,16.2,30.05,SSW,213,0.0,9.0,73,0.00,,---,0.00,VWS V14.00,2013-01-15 23:55:00,
2013-01-15 18:00:00,23.3,15.9,30.05,SSW,206,5.0,6.0,73,0.00,,---,0.00,VWS V14.00,2013-01-16 00:00:00,
2013-01-15 18:05:00,23.2,16.2,30.05,SW,226,3.0,7.0,74,0.00,,---,0.00,VWS V14.00,2013-01-16 00:05:00,
2013-01-15 18:10:00,23.1,16.1,30.04,SSW,210,4.0,7.0,74,0.00,,---,0.00,VWS V14.00,2013-01-16 00:10:00,
2013-01-15 18:15:00,23.0,17.8,30.04,SW,215,2.0,7.0,80,0.00,,---,0.00,VWS V14.00,2013-01-16 00:15:00,
2013-01-15 18:20:00,22.8,15.5,30.04,SW,215,2.0,7.0,73,0.00,,---,0.00,VWS V14.00,2013-01-16 00:20:00,
2013-01-15 18:25:00,22.6,15.6,30.04,SW,215,2.0,7.0,74,0.00,,---,0.00,VWS V14.00,2013-01-16 00:25:00,
2013-01-15 18:30:00,22.5,15.5,30.04,SSW,208,0.0,0.0,74,0.00,,---,0.00,VWS V14.00,2013-01-16 00:30:00,
2013-01-15 18:35:00,22.3,15.3,30.04,SSW,200,0.0,6.0,74,0.00,,---,0.00,VWS V14.00,2013-01-16 00:35:00,
2013-01-15 18:40:00,22.2,15.2,30.04,SSW,205,4.0,6.0,74,0.00,,---,0.00,VWS V14.00,2013-01-16 00:40:00,
2013-01-15 18:45:00,22.0,15.0,30.04,SSW,207,2.0,6.0,74,0.00,,---,0.00,VWS V14.00,2013-01-16 00:45:00,
2013-01-15 18:50:00,22.0,15.3,30.04,SSW,208,0.0,6.0,75,0.00,,---,0.00,VWS V14.00,2013-01-16 00:50:00,
2013-01-15 18:55:00,21.9,15.2,30.03,SSW,209,2.0,6.0,75,0.00,,---,0.00,VWS V14.00,2013-01-16 00:55:00,
2013-01-15 19:00:00,21.8,15.1,30.03,SSW,209,0.0,0.0,75,0.00,,---,0.00,VWS V14.00,2013-01-16 01:00:00,
2013-01-15 19:05:00,21.5,14.8,30.02,SSW,206,0.0,0.0,75,0.00,,---,0.00,VWS V14.00,2013-01-16 01:05:00,
2013-01-15 19:10:00,21.3,14.9,30.02,SSW,202,0.0,4.0,76,0.00,,---,0.00,VWS V14.00,2013-01-16 01:10:00,
2013-01-15 19:15:00,21.2,14.8,30.02,SSW,200,0.0,5.0,76,0.00,,---,0.00,VWS V14.00,2013-01-16 01:15:00,
2013-01-15 19:20:00,21.2,14.8,30.01,SSW,198,0.0,5.0,76,0.00,,---,0.00,VWS V14.00,2013-01-16 01:20:00,
2013-01-15 19:25:00,21.1,14.7,30.01,SSW,199,2.0,5.0,76,0.00,,---,0.00,VWS V14.00,2013-01-16 01:25:00,
2013-01-15 19:30:00,21.2,14.8,30.01,SSW,205,3.0,4.0,76,0.00,,---,0.00,VWS V14.00,2013-01-16 01:30:00,
2013-01-15 19:35:00,21.1,15.0,30.00,SSW,211,4.0,11.0,77,0.00,,---,0.00,VWS V14.00,2013-01-16 01:35:00,
2013-01-15 19:40:00,21.5,15.4,29.99,SW,223,5.0,11.0,77,0.00,,---,0.00,VWS V14.00,2013-01-16 01:40:00,
2013-01-15 19:45:00,21.8,15.7,29.99,SW,224,3.0,11.0,77,0.00,,---,0.00,VWS V14.00,2013-01-16 01:45:00,
2013-01-15 19:50:00,21.9,15.5,29.99,SW,231,5.0,11.0,76,0.00,,---,0.00,VWS V14.00,2013-01-16 01:50:00,
2013-01-15 19:55:00,22.1,15.7,29.99,SW,218,5.0,11.0,76,0.00,,---,0.00,VWS V14.00,2013-01-16 01:55:00,
2013-01-15 20:00:00,22.4,16.0,29.99,SW,219,6.0,11.0,76,0.00,,---,0.00,VWS V14.00,2013-01-16 02:00:00,
2013-01-15 20:05:00,22.4,15.7,29.98,SW,221,7.0,11.0,75,0.00,,---,0.00,VWS V14.00,2013-01-16 02:05:00,
2013-01-15 20:10:00,22.2,15.5,29.97,South,184,9.0,12.0,75,0.00,,---,0.00,VWS V14.00,2013-01-16 02:10:00,
2013-01-15 20:15:00,22.2,15.8,29.96,SSW,213,7.0,14.0,76,0.00,,---,0.00,VWS V14.00,2013-01-16 02:15:00,
2013-01-15 20:20:00,22.3,15.6,29.96,SSW,202,8.0,14.0,75,0.00,,---,0.00,VWS V14.00,2013-01-16 02:20:00,
2013-01-15 20:25:00,22.4,16.0,29.95,SW,214,5.0,14.0,76,0.00,,---,0.00,VWS V14.00,2013-01-16 02:25:00,
2013-01-15 20:30:00,22.2,15.8,29.94,SSW,195,10.0,12.0,76,0.00,,---,0.00,VWS V14.00,2013-01-16 02:30:00,
2013-01-15 20:35:00,22.2,15.8,29.94,SW,217,6.0,14.0,76,0.00,,---,0.00,VWS V14.00,2013-01-16 02:35:00,
2013-01-15 20:40:00,22.2,15.8,29.94,SW,232,6.0,14.0,76,0.00,,---,0.00,VWS V14.00,2013-01-16 02:40:00,
2013-01-15 20:45:00,22.2,15.8,29.94,SSW,207,7.0,14.0,76,0.00,,---,0.00,VWS V14.00,2013-01-16 02:45:00,
2013-01-15 20:50:00,22.2,15.8,29.94,SW,219,11.0,14.0,76,0.00,,---,0.00,VWS V14.00,2013-01-16 02:50:00,
2013-01-15 20:55:00,22.1,15.7,29.94,South,185,11.0,14.0,76,0.00,,---,0.00,VWS V14.00,2013-01-16 02:55:00,
2013-01-15 21:00:00,22.0,15.6,29.94,SSW,213,4.0,13.0,76,0.00,,---,0.00,VWS V14.00,2013-01-16 03:00:00,
2013-01-15 21:05:00,21.7,15.6,29.93,SSW,192,10.0,13.0,77,0.00,,---,0.00,VWS V14.00,2013-01-16 03:05:00,
2013-01-15 21:10:00,21.6,15.5,29.93,SW,224,9.0,13.0,77,0.00,,---,0.00,VWS V14.00,2013-01-16 03:10:00,
2013-01-15 21:15:00,21.6,15.5,29.93,SW,223,4.0,13.0,77,0.00,,---,0.00,VWS V14.00,2013-01-16 03:15:00,
2013-01-15 21:20:00,21.5,15.4,29.92,SW,229,5.0,13.0,77,0.00,,---,0.00,VWS V14.00,2013-01-16 03:20:00,
2013-01-15 21:25:00,21.4,15.3,29.92,SSW,213,6.0,13.0,77,0.00,,---,0.00,VWS V14.00,2013-01-16 03:25:00,
2013-01-15 21:30:00,21.5,15.4,29.92,South,189,3.0,9.0,77,0.00,,---,0.00,VWS V14.00,2013-01-16 03:30:00,
2013-01-15 21:35:00,21.5,15.4,29.91,SSW,211,7.0,16.0,77,0.00,,---,0.00,VWS V14.00,2013-01-16 03:35:00,
2013-01-15 21:40:00,21.6,15.5,29.91,WSW,240,5.0,16.0,77,0.00,,---,0.00,VWS V14.00,2013-01-16 03:40:00,
2013-01-15 21:45:00,21.8,15.7,29.91,SSW,205,9.0,16.0,77,0.00,,---,0.00,VWS V14.00,2013-01-16 03:45:00,
2013-01-15 21:50:00,22.0,15.9,29.91,SSW,192,12.0,16.0,77,0.00,,---,0.00,VWS V14.00,2013-01-16 03:50:00,
2013-01-15 21:55:00,22.2,16.1,29.90,SSW,211,11.0,16.0,77,0.00,,---,0.00,VWS V14.00,2013-01-16 03:55:00,
2013-01-15 22:00:00,22.4,16.0,29.90,SW,224,7.0,14.0,76,0.00,,---,0.00,VWS V14.00,2013-01-16 04:00:00,
2013-01-15 22:05:00,22.5,16.1,29.89,SW,215,6.0,14.0,76,0.00,,---,0.00,VWS V14.00,2013-01-16 04:05:00,
2013-01-15 22:10:00,22.5,16.4,29.89,SSW,194,10.0,15.0,77,0.00,,---,0.00,VWS V14.00,2013-01-16 04:10:00,
2013-01-15 22:15:00,22.6,16.5,29.89,SW,225,5.0,16.0,77,0.00,,---,0.00,VWS V14.00,2013-01-16 04:15:00,
2013-01-15 22:20:00,22.5,16.4,29.89,SW,217,7.0,16.0,77,0.00,,---,0.00,VWS V14.00,2013-01-16 04:20:00,
2013-01-15 22:25:00,22.5,16.7,29.88,SW,225,5.0,16.0,78,0.00,,---,0.00,VWS V14.00,2013-01-16 04:25:00,
2013-01-15 22:30:00,22.5,17.0,29.87,SSW,192,8.0,17.0,79,0.00,,---,0.00,VWS V14.00,2013-01-16 04:30:00,
2013-01-15 22:35:00,22.5,17.0,29.87,SW,222,7.0,17.0,79,0.00,,---,0.00,VWS V14.00,2013-01-16 04:35:00,
2013-01-15 22:40:00,22.5,17.0,29.86,SSW,200,5.0,17.0,79,0.00,,---,0.00,VWS V14.00,2013-01-16 04:40:00,
2013-01-15 22:45:00,22.6,17.1,29.87,SSW,213,9.0,17.0,79,0.00,,---,0.00,VWS V14.00,2013-01-16 04:45:00,
2013-01-15 22:50:00,22.7,17.2,29.86,SW,221,15.0,18.0,79,0.00,,---,0.00,VWS V14.00,2013-01-16 04:50:00,
2013-01-15 22:55:00,22.9,17.4,29.86,SW,228,10.0,18.0,79,0.00,,---,0.00,VWS V14.00,2013-01-16 04:55:00,
2013-01-15 23:00:00,22.9,17.4,29.86,SW,218,7.0,13.0,79,0.00,,---,0.00,VWS V14.00,2013-01-16 05:00:00,
2013-01-15 23:01:00,22.9,17.4,29.86,SW,231,3.0,13.0,79,0.00,,---,0.00,VWS V14.00,2013-01-16 05:01:00,
2013-01-15 23:02:00,22.9,17.4,29.86,SW,227,5.0,13.0,79,0.00,,---,0.00,VWS V14.00,2013-01-16 05:02:00,
2013-01-15 23:07:00,22.9,17.4,29.86,SW,219,10.0,14.0,79,0.00,,---,0.00,VWS V14.00,2013-01-16 05:07:00,
2013-01-15 23:12:00,23.1,17.9,29.86,SSW,211,5.0,14.0,80,0.00,,---,0.00,VWS V14.00,2013-01-16 05:12:00,
2013-01-15 23:17:00,23.4,17.9,29.86,SW,223,9.0,18.0,79,0.00,,---,0.00,VWS V14.00,2013-01-16 05:17:00,
2013-01-15 23:22:00,23.6,18.1,29.85,SW,231,9.0,18.0,79,0.00,,---,0.00,VWS V14.00,2013-01-16 05:22:00,
2013-01-15 23:27:00,23.7,18.1,29.85,South,178,11.0,18.0,79,0.00,,---,0.00,VWS V14.00,2013-01-16 05:27:00,
2013-01-15 23:30:00,23.7,18.1,29.85,South,178,11.0,18.0,79,0.00,,---,0.00,VWS V14.00,2013-01-16 05:30:00,
2013-01-15 23:32:00,23.9,18.4,29.84,SW,225,7.0,18.0,79,0.00,,---,0.00,VWS V14.00,2013-01-16 05:32:00,
2013-01-15 23:37:00,24.1,18.2,29.83,SSW,207,10.0,18.0,78,0.00,,---,0.00,VWS V14.00,2013-01-16 05:37:00,
2013-01-15 23:42:00,24.3,18.4,29.83,SW,226,13.0,18.0,78,0.00,,---,0.00,VWS V14.00,2013-01-16 05:42:00,
2013-01-15 23:47:00,24.4,18.5,29.83,SW,235,14.0,21.0,78,0.00,,---,0.00,VWS V14.00,2013-01-16 05:47:00,
2013-01-15 23:52:00,24.5,18.6,29.82,SW,223,4.0,21.0,78,0.00,,---,0.00,VWS V14.00,2013-01-16 05:52:00,
2013-01-15 23:57:00,24.5,18.6,29.82,SSW,200,12.0,21.0,78,0.00,,---,0.00,VWS V14.00,2013-01-16 05:57:00,